Temperature
18 18 17 17 18 18 18 18 18 18 18 18 17 17 17 17 17 17 17 16 16 16 16 16 15 15 15 15 15 15 15 15 15 15 16 16 16 16 15 16 16 16 15
18 18 17 17 17 18 18 18 18 18 17 17 17 17 17 17 16 16 16 16 16 16 15 15 15 15 15 14 14 14 15 15 15 15 16 17 17 16 16 15 15 15 15
19 18 18 17 17 17 18 18 18 18 17 17 17 17 17 16 16 16 16 16 16 15 15 15 15 14 14 14 14 14 14 15 14 14 15 17 18 17 16 15 15 15 15
19 19 18 18 18 17 17 17 18 18 17 17 17 17 17 17 16 16 16 16 15 15 15 15 14 14 14 14 14 14 14 14 15 14 14 14 14 15 17 16 15 15 14
20 19 19 18 18 17 17 17 17 17 17 17 17 17 17 16 16 16 16 15 15 15 15 14 14 14 14 14 13 13 13 14 14 14 14 14 14 14 15 16 15 15 15
20 19 19 18 18 17 17 17 17 17 17 17 17 16 16 16 16 16 15 15 15 15 14 14 14 14 14 13 13 13 13 13 13 13 13 14 14 14 14 15 15 15 15
20 19 19 18 18 18 17 17 17 17 17 17 17 16 16 16 16 15 15 15 15 15 14 14 14 14 13 13 13 13 13 13 12 12 13 13 13 13 14 14 14 14 15
21 20 19 19 18 18 18 17 17 17 17 17 17 16 16 16 16 15 15 15 15 15 14 14 14 13 13 13 13 13 12 12 12 12 12 12 13 13 13 13 14 14 15
21 21 20 19 19 18 18 18 17 17 17 17 17 16 16 16 15 15 15 15 14 14 14 14 13 13 13 13 13 13 12 12 12 12 12 12 12 12 12 12 13 13 14
22 21 21 20 20 19 18 18 18 18 18 17 17 16 16 16 16 15 15 14 14 14 14 14 13 13 13 13 13 13 12 12 12 12 12 12 12 12 12 12 12 12 13
23 22 21 21 20 19 19 18 18 18 18 17 17 17 16 16 16 15 15 15 15 14 14 14 13 13 13 13 13 13 12 12 12 12 12 12 11 12 12 12 12 12 12
23 23 22 21 20 20 19 19 18 18 18 18 17 17 17 16 16 15 15 15 15 15 14 14 14 13 13 13 13 13 12 12 12 12 12 12 12 11 11 11 12 12 12
24 23 22 21 21 20 20 19 19 18 18 18 17 17 17 17 16 16 16 15 15 15 14 14 14 14 13 13 13 13 13 13 12 12 12 12 12 11 11 11 11 12 12
23 23 22 22 21 21 20 19 19 19 18 18 18 17 17 17 17 16 16 16 15 15 15 14 14 14 14 14 13 13 13 13 12 12 12 12 12 11 11 11 11 11 11
23 23 22 22 21 21 20 20 19 19 19 18 18 18 17 17 17 16 16 16 16 15 15 15 14 14 14 14 14 13 13 13 13 12 12 12 12 12 12 11 11 11 11
23 23 22 22 21 20 20 20 19 19 19 18 18 18 17 17 17 17 16 16 16 15 15 15 15 14 14 14 14 14 13 13 13 13 12 12 12 12 12 12 12 11 11
23 22 22 21 21 20 20 20 19 19 19 18 18 18 18 17 17 17 16 16 16 16 15 15 15 15 14 15 15 14 14 13 13 13 12 12 13 12 11 12 11 12 11
22 22 21 21 21 20 20 19 19 19 19 19 18 18 17 17 17 16 16 16 16 16 15 15 15 15 14 15 15 14 14 13 13 13 13 12 12 12 11 11 11 11 10
20 20 20 21 20 20 19 19 19 19 19 18 18 18 17 17 17 17 16 16 16 16 15 15 15 15 15 15 15 14 14 13 13 13 12 12 12 12 12 12 11 11 11
19 19 19 20 19 19 19 19 18 18 18 18 18 17 17 17 17 16 16 16 16 16 15 15 15 15 14 14 14 14 13 13 13 13 12 12 12 12 12 12 11 11 11
18 18 18 18 18 18 18 18 18 18 18 17 17 17 17 17 16 16 16 15 15 15 15 15 14 14 14 14 14 14 13 13 13 13 13 13 13 12 12 12 11 11 11
17 17 17 17 17 17 17 17 17 17 17 17 17 16 16 16 15 15 15 15 15 14 14 14 14 14 14 14 13 13 13 13 12 12 12 13 12 12 12 12 12 12 11
16 16 16 16 16 17 17 17 16 16 16 16 16 16 16 15 15 15 14 14 14 14 14 13 13 13 13 13 13 12 12 12 12 12 12 12 12 12 12 12 11 11 11
16 16 15 15 16 16 16 16 16 15 15 15 15 14 14 14 14 14 13 13 13 13 13 13 13 13 13 12 12 12 12 11 11 11 11 11 11 11 11 11 11 11 11
15 15 15 15 14 14 14 14 14 14 14 14 14 13 13 13 13 13 13 13 12 12 12 12 12 11 11 12 11 11 11 11 10 10 10 11 11 11 11 11 11 11 10
14 14 14 14 13 13 13 13 13 13 13 13 13 13 13 12 12 12 12 12 12 11 11 11 11 11 11 11 11 10 10 10 10 10 10 10 11 11 11 11 11 11 11
Wind_Speed
8 9 10 10 10 10 10 10 10 9 8 6 6 6 5 5 5 5 6 6 5 5 3 2 3 1 1 1 1 2 2 2 3 5 5 4 4 3 3 3 4 3 4
9 10 11 11 10 10 10 10 10 10 8 6 4 4 5 4 5 5 6 6 5 5 4 2 2 1 1 1 0 2 4 3 2 5 6 4 4 3 1 2 2 3 4
11 11 12 12 12 11 11 10 9 9 7 7 6 5 5 5 6 6 5 5 5 4 2 3 2 2 2 1 1 2 3 3 2 3 4 5 4 3 2 1 1 2 3
11 12 12 13 12 11 10 10 9 9 8 8 7 7 6 6 5 5 5 5 5 4 4 3 3 3 2 1 3 0 2 3 4 1 2 4 5 5 4 3 2 2 3
13 13 13 13 12 12 11 10 10 9 8 7 8 7 6 6 6 5 6 5 5 4 4 4 3 3 3 2 2 1 3 3 4 4 3 3 3 5 7 6 5 5 4
13 14 13 13 13 12 11 11 10 9 8 8 7 7 6 6 6 6 6 6 5 4 5 4 4 4 3 2 2 2 3 3 3 4 4 4 5 5 5 7 7 6 5
14 14 15 15 14 14 13 12 11 10 10 9 8 8 7 7 7 6 6 5 5 5 5 4 3 3 3 3 3 3 3 3 3 4 5 5 5 5 6 7 8 8 7
15 15 15 15 15 15 14 13 13 12 11 10 9 7 8 7 6 6 4 5 4 4 5 4 4 3 4 4 3 4 4 3 4 4 4 5 5 5 6 7 8 8 8
16 16 16 16 16 15 15 14 14 12 12 11 10 9 8 7 5 6 6 5 4 4 5 5 4 4 4 4 4 4 4 4 5 5 5 6 5 5 6 6 7 8 9
16 17 16 17 16 15 15 14 14 13 12 12 11 10 9 8 7 7 6 5 5 5 6 6 5 5 5 5 5 5 4 5 5 4 5 6 6 5 6 6 7 7 9
16 16 16 16 16 16 16 15 15 14 13 13 12 10 10 9 9 8 8 7 7 6 6 6 6 6 6 6 5 6 5 6 6 6 6 7 7 7 7 6 7 8 8
16 16 16 16 16 16 16 16 15 15 15 14 13 12 11 10 10 9 8 8 7 7 7 7 7 7 7 6 7 7 6 7 7 7 7 8 7 7 8 7 8 8 8
16 16 16 16 17 17 16 16 16 16 15 15 14 13 12 12 11 10 9 9 8 8 8 8 8 8 7 7 7 7 7 8 8 8 8 8 8 9 8 8 9 9 9
16 16 16 17 17 17 16 16 17 16 16 15 15 14 13 13 12 11 10 10 9 9 9 9 9 8 8 8 8 8 8 9 9 9 9 10 10 10 10 9 10 10 10
16 16 16 16 16 16 16 16 16 16 15 15 15 14 13 13 12 12 11 11 10 10 10 9 9 9 9 9 9 8 9 9 10 10 10 11 10 9 9 10 10 10 10
15 16 16 15 15 16 15 15 15 15 15 15 15 14 13 13 13 12 12 11 11 10 10 10 10 11 10 6 7 9 10 10 10 11 11 11 11 13 15 15 15 14 13
12 14 15 15 14 14 14 15 14 14 14 15 14 13 13 13 13 13 12 12 11 11 11 11 11 12 10 9 11 12 11 12 12 12 11 11 11 10 12 14 18 18 20
7 9 11 12 13 12 12 12 13 13 13 13 13 12 13 13 12 12 11 11 10 10 11 11 11 11 11 12 13 12 12 14 14 14 14 14 14 13 12 13 14 14 14
4 5 7 9 9 10 11 11 11 12 12 12 12 12 12 12 11 12 11 10 10 10 10 11 11 12 12 11 13 12 11 12 15 15 15 15 15 13 11 13 15 15 15
1 2 4 5 6 7 9 10 10 10 10 10 10 9 9 10 10 10 9 9 9 9 10 10 10 11 12 10 11 12 10 13 13 13 14 15 17 14 12 14 15 16 15
3 4 5 5 5 5 7 8 7 7 7 7 7 7 8 8 8 7 7 7 7 8 8 9 9 10 11 11 11 13 10 12 13 13 13 12 12 16 16 15 15 16 14
6 6 7 7 6 6 6 6 5 4 4 5 5 6 6 6 5 6 6 6 6 7 8 9 10 9 10 10 10 12 15 14 13 14 14 12 8 11 13 14 16 15 12
8 8 8 8 8 7 7 6 5 4 5 5 4 4 4 4 4 5 5 6 6 7 7 8 9 9 8 8 11 13 14 15 13 14 15 14 10 11 13 17 18 14 13
9 9 9 9 9 8 7 6 5 5 5 4 4 3 3 3 2 2 3 4 4 5 6 7 8 9 8 8 7 7 8 10 12 13 14 15 16 16 16 13 13 13 14
9 9 10 10 9 8 7 6 4 4 5 4 3 2 2 2 1 1 2 3 3 3 5 7 7 9 10 8 9 9 11 11 11 11 12 13 13 13 13 13 13 13 13
9 9 9 9 8 8 7 5 4 4 4 3 2 2 1 1 1 1 2 3 5 4 7 9 9 8 9 12 13 14 14 14 11 10 13 15 14 14 14 13 12 12 13
Wind_Direction
174 170 169 165 162 161 161 160 157 156 160 159 165 161 162 158 154 152 146 152 148 143 152 134 132 159 93 21 318 309 283 298 320 294 283 256 240 251 252 267 280 272 271
167 164 166 165 165 168 169 163 165 162 165 160 162 160 147 158 151 148 144 159 158 166 171 163 186 145 156 173 282 307 310 320 327 314 304 284 223 197 236 259 261 293 283
177 171 172 172 171 173 176 170 166 164 164 160 160 150 150 166 162 162 162 163 169 178 178 184 210 189 228 168 248 280 295 312 310 326 314 308 319 321 212 243 285 303 306
179 173 172 174 173 175 175 169 167 163 164 175 176 176 181 180 168 173 161 163 175 185 186 195 200 224 246 195 241 241 291 294 302 302 299 310 329 305 298 251 238 268 282
180 178 175 174 173 173 171 166 165 163 168 175 171 183 188 176 168 170 155 178 172 186 192 196 203 217 238 237 281 257 280 286 304 312 308 300 279 271 289 298 305 291 285
179 179 175 172 173 172 170 166 166 166 168 174 174 186 178 174 172 181 175 192 186 190 186 196 205 221 235 221 236 251 243 283 304 302 299 296 295 296 294 293 290 297 297
177 176 175 172 173 174 174 173 172 171 172 175 179 181 179 178 184 195 190 208 197 191 180 195 204 220 218 223 233 235 265 259 266 275 287 294 292 296 295 295 298 298 292
178 177 177 175 176 177 177 177 177 177 178 179 179 179 182 192 188 194 202 200 211 194 169 191 202 210 214 221 223 246 240 249 261 270 284 285 283 290 289 293 299 297 294
180 179 179 180 181 182 182 182 179 180 182 182 180 183 189 197 184 180 205 202 198 191 186 197 201 206 212 226 235 249 251 248 253 256 245 263 281 277 284 285 288 293 297
182 182 183 185 186 186 184 185 183 185 186 185 188 186 188 189 189 199 198 197 196 198 197 201 204 208 210 216 234 239 229 244 249 262 278 275 276 280 277 279 279 279 285
183 183 184 186 186 186 185 187 187 188 190 191 192 189 190 190 193 198 196 194 197 195 204 208 212 215 217 219 227 247 241 244 251 253 252 257 275 278 280 274 274 274 277
185 185 185 186 187 189 189 189 191 193 194 192 191 192 193 193 197 198 197 195 197 202 205 211 217 222 223 225 231 243 245 247 252 257 260 262 261 260 269 277 277 278 279
188 187 188 188 191 193 194 194 195 196 195 193 194 194 195 196 201 201 198 199 201 207 210 214 221 226 229 231 236 243 247 250 254 258 260 262 263 262 266 269 273 276 273
191 192 192 194 195 196 196 198 200 198 197 195 196 197 199 200 201 201 201 203 206 211 215 218 224 229 233 235 238 241 247 253 257 258 259 260 260 260 264 264 263 268 275
195 197 199 198 199 199 199 201 202 200 198 196 199 200 200 201 201 201 203 206 210 216 218 223 228 232 235 236 236 243 247 251 257 257 256 257 255 266 264 270 273 272 271
203 203 204 202 200 201 201 200 200 197 195 199 203 202 200 201 203 204 206 208 213 220 222 227 234 238 240 200 209 242 257 256 256 259 261 260 243 238 231 243 255 264 267
212 210 207 206 204 201 199 198 197 193 194 200 204 201 200 203 206 208 209 211 214 219 227 232 236 242 241 205 209 223 248 257 259 260 262 265 265 248 254 238 229 240 243
218 216 212 206 203 199 196 195 190 188 192 197 201 201 204 206 207 210 214 216 219 223 229 236 240 245 243 211 215 218 238 255 258 258 258 260 266 263 258 263 260 255 248
224 219 211 200 192 191 189 186 189 188 190 196 200 201 204 207 207 210 214 216 220 226 232 236 240 245 248 221 215 218 249 254 257 258 259 258 260 252 232 252 261 263 263
163 178 172 172 169 175 172 176 182 185 191 194 197 199 201 206 210 213 216 218 221 230 239 243 245 250 256 239 215 214 252 261 264 263 260 250 244 250 222 243 255 260 263
91 105 114 118 128 144 153 166 172 180 187 185 185 189 194 203 211 215 219 225 229 239 246 253 254 256 257 251 223 214 245 265 270 272 270 267 222 224 226 233 250 257 266
86 98 103 99 98 110 126 135 143 150 158 161 165 175 182 196 199 203 213 222 231 238 247 253 260 262 258 252 243 221 229 253 267 271 273 274 230 222 227 234 244 249 255
83 89 96 96 91 91 100 105 100 107 124 137 144 154 162 175 188 200 210 219 226 246 257 262 268 272 274 264 239 235 235 238 251 268 274 280 261 245 245 239 237 238 244
81 83 85 84 78 77 77 78 83 99 113 118 120 134 144 146 148 221 235 246 254 263 272 275 278 283 284 284 287 284 272 254 254 265 266 251 245 245 255 257 237 236 242
79 80 82 81 80 76 75 75 82 103 111 115 121 126 122 111 146 220 277 272 291 300 285 286 289 292 291 308 333 309 296 295 297 300 282 273 265 257 252 249 246 246 245
85 85 83 82 82 81 75 73 82 94 104 107 103 102 104 102 276 282 275 239 255 253 248 255 270 287 286 298 299 292 284 279 277 276 270 270 268 266 265 262 258 252 252
Height
1516 1518 1520 1523 1526 1529 1532 1535 1539 1542 1546 1549 1551 1553 1555 1557 1559 1560 1562 1563 1565 1566 1567 1568 1567 1568 1569 1568 1569 1569 1569 1569 1568 1568 1567 1566 1566 1565 1565 1565 1565 1565 1565
1515 1517 1520 1522 1525 1528 1531 1534 1538 1542 1545 1548 1550 1552 1554 1556 1558 1560 1561 1563 1564 1565 1567 1567 1568 1567 1567 1567 1567 1567 1568 1568 1567 1567 1566 1565 1565 1564 1564 1563 1563 1563 1563
1513 1516 1518 1521 1524 1527 1531 1535 1537 1541 1544 1546 1549 1551 1553 1555 1557 1559 1560 1562 1563 1564 1565 1565 1566 1566 1567 1567 1566 1566 1566 1567 1566 1566 1566 1565 1562 1563 1563 1562 1561 1561 1561
1512 1514 1517 1520 1524 1527 1531 1533 1536 1539 1542 1545 1548 1550 1553 1555 1557 1558 1560 1560 1562 1563 1564 1564 1564 1565 1566 1565 1565 1565 1565 1565 1565 1565 1564 1565 1564 1563 1561 1561 1560 1560 1559
1510 1513 1516 1518 1523 1526 1530 1532 1535 1538 1541 1544 1546 1548 1552 1554 1556 1557 1558 1559 1560 1561 1562 1562 1563 1563 1564 1564 1563 1563 1563 1564 1564 1564 1564 1563 1563 1562 1562 1560 1560 1559 1558
1508 1512 1515 1518 1522 1525 1528 1531 1534 1537 1539 1542 1545 1547 1550 1552 1554 1555 1557 1558 1559 1560 1560 1561 1561 1562 1562 1562 1561 1561 1562 1561 1561 1561 1562 1562 1562 1561 1560 1559 1558 1557 1556
1506 1510 1513 1516 1520 1524 1527 1530 1533 1535 1538 1541 1543 1546 1548 1550 1552 1554 1555 1557 1558 1559 1558 1560 1559 1560 1560 1560 1560 1560 1560 1560 1559 1559 1560 1560 1560 1559 1559 1558 1556 1555 1553
1504 1508 1511 1514 1518 1522 1525 1528 1531 1534 1537 1540 1542 1544 1546 1549 1551 1552 1554 1555 1557 1558 1557 1557 1557 1558 1558 1559 1558 1559 1559 1558 1557 1558 1557 1557 1558 1557 1556 1556 1555 1553 1551
1501 1505 1509 1513 1517 1520 1523 1526 1529 1532 1535 1538 1540 1542 1545 1547 1549 1549 1551 1553 1553 1555 1555 1555 1555 1556 1556 1556 1556 1557 1556 1556 1556 1556 1556 1555 1556 1555 1554 1553 1553 1552 1549
1499 1503 1507 1511 1515 1518 1521 1525 1527 1530 1533 1536 1539 1541 1543 1545 1546 1548 1549 1550 1551 1552 1552 1553 1554 1554 1554 1554 1554 1555 1554 1554 1553 1553 1552 1552 1553 1552 1552 1551 1550 1549 1548
1496 1500 1505 1508 1512 1516 1519 1522 1525 1528 1531 1534 1536 1539 1541 1543 1544 1545 1547 1547 1548 1549 1550 1551 1551 1552 1552 1552 1552 1553 1552 1552 1552 1551 1550 1550 1549 1549 1549 1548 1547 1546 1545
1494 1498 1502 1506 1510 1513 1517 1519 1522 1525 1528 1531 1534 1536 1538 1540 1541 1543 1544 1545 1546 1547 1547 1548 1549 1549 1550 1550 1550 1550 1550 1550 1549 1549 1548 1547 1547 1545 1545 1544 1544 1542 1541
1491 1495 1499 1503 1506 1510 1513 1516 1519 1522 1526 1528 1531 1533 1535 1536 1538 1540 1541 1542 1543 1544 1545 1545 1546 1547 1547 1547 1547 1547 1547 1546 1546 1545 1545 1544 1543 1542 1542 1540 1539 1538 1537
1489 1492 1496 1499 1503 1506 1509 1513 1516 1519 1522 1525 1527 1529 1531 1533 1535 1536 1538 1539 1540 1541 1542 1542 1543 1544 1544 1544 1544 1544 1543 1543 1542 1541 1541 1540 1539 1538 1537 1536 1534 1534 1532
1485 1488 1492 1495 1499 1502 1505 1508 1512 1515 1518 1520 1523 1525 1527 1529 1531 1532 1534 1535 1537 1538 1538 1539 1540 1540 1540 1540 1541 1540 1540 1539 1538 1537 1536 1535 1534 1533 1532 1532 1531 1530 1528
1481 1485 1488 1491 1494 1497 1500 1503 1506 1509 1512 1515 1518 1520 1522 1524 1526 1528 1530 1531 1533 1534 1535 1535 1536 1536 1537 1537 1536 1535 1535 1534 1534 1533 1532 1531 1529 1527 1526 1525 1524 1524 1522
1478 1481 1483 1486 1489 1492 1495 1498 1501 1504 1507 1509 1513 1515 1518 1520 1522 1524 1526 1527 1528 1529 1530 1531 1531 1532 1532 1531 1531 1531 1530 1529 1528 1527 1526 1526 1525 1523 1521 1519 1517 1516 1515
1475 1477 1480 1482 1485 1488 1491 1493 1496 1499 1502 1504 1507 1510 1513 1515 1517 1519 1521 1522 1523 1524 1525 1526 1526 1526 1527 1526 1526 1525 1524 1523 1522 1521 1520 1519 1518 1517 1516 1514 1513 1511 1509
1472 1474 1476 1478 1481 1484 1486 1489 1492 1494 1497 1500 1503 1505 1508 1511 1512 1514 1516 1517 1518 1519 1520 1521 1521 1521 1521 1521 1520 1520 1518 1517 1516 1515 1514 1512 1511 1510 1509 1507 1505 1504 1503
1471 1472 1474 1475 1477 1480 1483 1485 1488 1490 1493 1496 1498 1501 1503 1505 1507 1509 1511 1512 1513 1514 1515 1515 1515 1515 1515 1515 1514 1513 1512 1511 1510 1508 1507 1505 1504 1503 1502 1500 1498 1497 1496
1471 1471 1472 1474 1475 1477 1479 1482 1485 1487 1490 1492 1495 1496 1498 1500 1502 1504 1505 1507 1508 1509 1509 1509 1509 1508 1508 1507 1507 1506 1505 1504 1503 1501 1500 1499 1497 1495 1494 1493 1491 1489 1489
1472 1472 1472 1473 1474 1476 1478 1480 1482 1485 1488 1490 1491 1493 1494 1496 1498 1499 1500 1501 1502 1503 1503 1503 1502 1502 1501 1500 1499 1498 1497 1496 1494 1492 1492 1491 1489 1487 1486 1484 1482 1482 1480
1472 1473 1473 1473 1474 1475 1477 1479 1481 1483 1485 1487 1488 1490 1491 1492 1493 1494 1495 1496 1497 1497 1497 1497 1496 1496 1495 1493 1492 1490 1488 1487 1485 1483 1482 1481 1479 1478 1476 1474 1474 1473 1471
1473 1474 1474 1474 1474 1475 1477 1478 1481 1483 1483 1484 1485 1487 1488 1489 1490 1491 1492 1492 1492 1492 1492 1491 1490 1489 1488 1487 1485 1483 1481 1479 1477 1475 1473 1471 1469 1468 1466 1465 1464 1462 1462
1475 1475 1475 1475 1476 1477 1478 1479 1480 1482 1482 1483 1484 1485 1486 1486 1487 1487 1488 1488 1487 1487 1486 1485 1484 1483 1481 1480 1477 1475 1473 1472 1470 1467 1465 1463 1462 1460 1458 1457 1456 1454 1453
1478 1477 1477 1477 1478 1478 1479 1481 1481 1482 1482 1483 1483 1484 1484 1484 1485 1485 1484 1483 1482 1481 1480 1479 1477 1475 1474 1472 1469 1468 1466 1463 1461 1459 1456 1455 1453 1451 1450 1448 1447 1446 1444